Portage, MI

2:04 AM EST on February 13, 2016 (GMT -0500)
Kalamazoo-Battle Creek International

Weather History for KAZO - January, 1989

Change the Weather History Date:

Friday, January 20, 1989

  Actual Average Record
Temperature  
Mean Temperature 26 °F 24 °F  
Max Temperature 31 °F 31 °F 54 °F (2006)
Min Temperature 19 °F 18 °F -7 °F (1985)
Degree Days  
Heating Degree Days 40 41  
Month to date heating degree days 812  
Since 1 July heating degree days 3263  
Cooling Degree Days 0 0  
Month to date cooling degree days 0  
Year to date cooling degree days 0  
Moisture  
Dew Point 17 °F    
Average Humidity 69    
Maximum Humidity 85    
Minimum Humidity 58    
Precipitation  
Precipitation 0.00 in 0.06 in 0.85 in (1974)
Month to date precipitation 1.14  
Year to date precipitation 1.14  
Sea Level Pressure  
Sea Level Pressure 30.24 in    
Wind  
Wind Speed 15 mph (NNW)    
Max Wind Speed 21 mph    
Max Gust Speed 29 mph    
Visibility 12 miles    
Events Snow    
T = Trace of Precipitation, MM = Missing Value Source: NWS Daily Summary

Daily Weather History Graph

Daily Weather History Graph

Search for Another Location

Airport or City:

Trip Planner

Search our weather history database for the weather conditions in past years. The results will help you decide how hot, cold, wet, or windy it might be!

Date:

Astronomy

Jan. 20, 1989 Rise Set
Actual Time 8:05 AM EST 5:41 PM EST
Civil Twilight 7:35 AM EST 6:12 PM EST
Nautical Twilight 7:00 AM EST 6:46 PM EST
Astronomical Twilight 6:27 AM EST 7:19 PM EST
Moon 4:23 PM EST (1/20) 7:35 AM EST (1/20)
Length of Visible Light 10h 37m
Length of Day
9h 35m
Waxing Gibbous, 99% of the Moon is Illuminated
Jan 20
Waxing Gibbous
Jan 21
Full
Jan 29
Last Quarter
Feb 6
New
Feb 12
First Quarter

Hourly Weather History & Observations

Time (EST) Temp. Windchill Dew Point Humidity Pressure Visibility Wind Dir Wind Speed Gust Speed Precip Events Conditions
6:00 AM 31.1 °F 21.4 °F 27.1 °F 85% 29.97 in 4.0 mi NNW 12.7 mph - N/A Snow Light Snow
7:00 AM 30.2 °F 18.5 °F 24.3 °F 79% 30.01 in 8.0 mi NNW 17.3 mph - N/A   Overcast
8:00 AM 30.2 °F 18.5 °F 25.2 °F 82% 30.05 in 6.0 mi NW 17.3 mph 25.3 mph N/A Snow Light Snow
9:00 AM 29.1 °F 17.1 °F 23.2 °F 78% 30.09 in 10.0 mi NNW 17.3 mph 24.2 mph N/A   Overcast
9:53 AM - - - N/A% 30.14 in 5.2 mi NNW 11.5 mph - N/A   Unknown
10:00 AM 29.1 °F 17.1 °F 21.2 °F 72% 30.13 in 4.0 mi NW 17.3 mph 24.2 mph N/A Snow Light Snow
11:00 AM 29.1 °F 17.5 °F 21.2 °F 72% 30.18 in 10.0 mi NW 16.1 mph - N/A   Mostly Cloudy
12:00 PM 28.2 °F 15.9 °F 16.2 °F 61% 30.21 in 10.0 mi NNW 17.3 mph - N/A   Mostly Cloudy
1:00 PM 26.2 °F 13.4 °F 17.2 °F 69% 30.23 in 10.0 mi NW 17.3 mph 28.8 mph N/A   Mostly Cloudy
2:00 PM 27.1 °F 13.4 °F 15.3 °F 61% 30.24 in 15.0 mi NW 20.7 mph - N/A   Mostly Cloudy
3:00 PM 26.2 °F 13.4 °F 15.3 °F 63% 30.26 in 15.0 mi NW 17.3 mph - N/A   Mostly Cloudy
4:00 PM 25.2 °F 12.0 °F 13.1 °F 60% 30.30 in 15.0 mi NW 17.3 mph - N/A   Mostly Cloudy
5:00 PM 25.2 °F 12.4 °F 12.2 °F 58% 30.32 in 20.0 mi NW 16.1 mph - N/A   Mostly Cloudy
6:00 PM 23.2 °F 11.4 °F 12.2 °F 63% 30.35 in 20.0 mi NNW 12.7 mph - N/A   Mostly Cloudy
7:00 PM 21.2 °F 8.9 °F 11.1 °F 65% 30.38 in 20.0 mi NNW 12.7 mph - N/A   Scattered Clouds
8:00 PM 21.2 °F 8.9 °F 13.1 °F 71% 30.41 in 20.0 mi NNW 12.7 mph - N/A   Scattered Clouds
9:00 PM 20.1 °F 8.8 °F 12.2 °F 71% 30.44 in 20.0 mi North 10.4 mph - N/A   Scattered Clouds
10:00 PM 20.1 °F 8.1 °F 11.1 °F 68% 30.47 in 25.0 mi North 11.5 mph - N/A   Clear
11:00 PM 19.2 °F 7.7 °F 10.2 °F 68% 30.47 in 25.0 mi North 10.4 mph - N/A   Clear